FW7889 Weather Reports


time (UTC)temp
C
wind
direction
speed
KPH
gust
KPH
rain 1hr
cm
rain 24hr
cm
rain mn
cm
humidity
%
barometer
mb
20260904054316 12 298 0.0 0.0 0.00 0.00 0.00 99 1067.8
20260904053316 12 289 0.0 0.0 0.00 0.00 0.00 99 1067.8
20260904052315 12 289 0.0 0.0 0.00 0.00 0.00 99 1067.7
20260904051312 13 288 0.0 0.0 0.00 0.00 0.00 99 1068.0
20260904050310 13 289 0.0 0.0 0.00 0.00 0.00 99 1067.9
20260904045311 13 288 0.0 0.0 0.00 0.00 0.00 99 1067.8
20260904044308 13 289 0.0 0.0 0.00 0.00 0.00 99 1067.6
20260904043306 13 293 0.0 0.0 0.00 0.00 0.00 99 1067.8
20260904042305 13 293 0.0 0.0 0.00 0.00 0.00 99 1067.7
20260904041258 13 293 0.0 0.0 0.00 0.00 0.00 99 1068.0
20260904040255 13 291 0.0 0.0 0.00 0.00 0.00 99 1068.0
20260904035252 13 289 0.0 0.0 0.00 0.00 0.00 99 1068.0
20260904034247 13 289 0.0 0.0 0.00 0.00 0.00 99 1068.1
20260904033245 13 288 0.0 0.0 0.00 0.00 0.00 99 1068.0
20260904032246 14 293 0.0 0.0 0.00 0.00 0.00 99 1068.0
20260904031242 14 289 0.0 0.0 0.00 0.00 0.00 99 1068.0
20260904030239 14 288 0.0 0.0 0.00 0.00 0.00 99 1068.0
20260904025236 15 288 0.0 0.0 0.00 0.00 0.00 99 1067.9
20260904024232 15 288 0.0 0.0 0.00 0.00 0.00 99 1067.9
20260904023231 15 296 0.0 0.0 0.00 0.00 0.00 99 1067.9
20260904022227 15 288 0.0 0.0 0.00 0.00 0.00 99 1068.0
20260904021223 15 288 0.0 0.0 0.00 0.00 0.00 99 1068.2
20260904020218 15 289 0.0 0.0 0.00 0.00 0.00 99 1068.0
20260904015218 15 290 0.0 0.0 0.00 0.00 0.00 99 1068.2
20260904014218 15 303 1.6 1.6 0.00 0.00 0.00 99 1068.3
20260904013216 16 289 0.0 0.0 0.00 0.00 0.00 99 1068.4
20260904012216 16 289 0.0 0.0 0.00 0.00 0.00 99 1068.4
20260904011212 16 283 0.0 0.0 0.00 0.00 0.00 99 1068.4
20260904010209 16 290 0.0 0.0 0.00 0.00 0.00 99 1068.5
20260904005206 16 288 0.0 0.0 0.00 0.00 0.00 99 1068.3
20260904004207 16 293 0.0 0.0 0.00 0.00 0.00 99 1068.3
20260904003204 17 275 0.0 0.0 0.00 0.00 0.00 99 1068.0
20260904002201 17 289 0.0 0.0 0.00 0.00 0.00 99 1068.0
20260904001201 17 281 0.0 0.0 0.00 0.00 0.00 99 1068.0
20260904000158 17 280 0.0 0.0 0.00 0.00 0.00 99 1068.0
20260903235154 18 284 0.0 0.0 0.00 0.00 0.00 99 1068.0
20260903234150 18 275 0.0 0.0 0.00 0.00 0.00 99 1067.8
20260903233148 18 280 0.0 0.0 0.00 0.00 0.00 98 1067.6
20260903232143 19 287 0.0 0.0 0.00 0.00 0.00 95 1067.5
20260903231142 19 276 0.0 0.0 0.00 0.00 0.00 92 1067.3
20260903230137 20 280 0.0 0.0 0.00 0.00 0.00 94 1067.6
20260903225136 21 273 0.0 0.0 0.00 0.00 0.00 87 1067.6
20260903224134 21 273 0.0 0.0 0.00 0.00 0.00 83 1067.9
20260903223133 21 284 0.0 0.0 0.00 0.00 0.00 80 1067.7
20260903222133 22 293 1.6 1.6 0.00 0.00 0.00 78 1067.7
20260903221132 22 287 1.6 1.6 0.00 0.00 0.00 76 1067.5
20260903220132 22 291 0.0 1.6 0.00 0.00 0.00 75 1067.7
20260903215132 22 315 3.2 3.2 0.00 0.00 0.00 74 1067.8
20260903214126 23 318 4.8 4.8 0.00 0.00 0.00 72 1067.7
20260903213122 23 274 3.2 3.2 0.00 0.00 0.00 73 1067.5
20260903212119 23 310 3.2 3.2 0.00 0.00 0.00 72 1067.4
20260903211117 23 321 4.8 4.8 0.00 0.00 0.00 70 1067.6
20260903210114 23 319 3.2 4.8 0.00 0.00 0.00 69 1067.8
20260903205112 23 337 6.4 8.0 0.00 0.00 0.00 71 1067.8
20260903204109 23 341 4.8 4.8 0.00 0.00 0.00 71 1068.0
20260903203105 23 315 1.6 3.2 0.00 0.00 0.00 71 1067.7
20260903202102 23 307 4.8 4.8 0.00 0.00 0.00 70 1068.1
20260903201102 25 340 4.8 4.8 0.00 0.00 0.00 68 1068.1
20260903200058 24 324 3.2 4.8 0.00 0.00 0.00 71 1067.9
20260903195055 23 337 3.2 4.8 0.00 0.00 0.00 71 1067.7
20260903194051 23 318 8.0 11.3 0.00 0.00 0.00 71 1067.9
20260903193048 23 332 4.8 4.8 0.00 0.00 0.00 70 1067.9
20260903192045 23 330 4.8 4.8 0.00 0.00 0.00 71 1067.8
20260903191042 24 344 8.0 9.7 0.00 0.00 0.00 70 1068.0
20260903190041 23 296 3.2 3.2 0.00 0.00 0.00 71 1068.2
20260903185038 23 300 1.6 1.6 0.00 0.00 0.00 71 1067.9
20260903184035 23 311 1.6 3.2 0.00 0.00 0.00 71 1068.0
20260903183035 25 319 1.6 3.2 0.00 0.00 0.00 67 1067.9
20260903182030 23 247 8.0 9.7 0.00 0.00 0.00 69 1067.9
20260903181028 25 293 3.2 3.2 0.00 0.00 0.00 70 1068.0
20260903180024 24 250 4.8 8.0 0.00 0.00 0.00 72 1068.1
20260903175022 23 321 4.8 4.8 0.00 0.00 0.00 70 1068.1
20260903174017 24 330 3.2 4.8 0.00 0.00 0.00 70 1068.0
20260903173014 23 297 3.2 3.2 0.00 0.00 0.00 70 1068.1
20260903172010 23 273 1.6 1.6 0.00 0.00 0.00 75 1068.1
20260903171006 23 349 4.8 8.0 0.00 0.00 0.00 76 1068.4
20260903170006 23 247 4.8 4.8 0.00 0.00 0.00 79 1068.2
20260903165000 22 298 1.6 1.6 0.00 0.00 0.00 83 1068.4
20260903163954 22 297 3.2 3.2 0.00 0.00 0.00 88 1068.4
20260903162952 22 263 8.0 9.7 0.00 0.00 0.00 89 1068.7
20260903161950 22 260 11.3 12.9 0.00 0.00 0.00 92 1068.8
20260903160947 21 300 1.6 1.6 0.00 0.00 0.00 94 1068.8
20260903155945 21 259 3.2 3.2 0.00 0.00 0.00 95 1068.5
20260903154941 21 255 6.4 8.0 0.00 0.00 0.00 98 1068.8
20260903153938 20 257 1.6 1.6 0.00 0.00 0.00 99 1068.9
20260903152935 20 280 0.0 1.6 0.00 0.00 0.00 99 1068.8
20260903151932 19 265 4.8 4.8 0.00 0.00 0.00 99 1068.8
20260903150927 19 261 0.0 0.0 0.00 0.00 0.00 99 1068.9
20260903145922 19 261 6.4 9.7 0.00 0.00 0.00 99 1069.1
20260903144918 18 260 3.2 3.2 0.00 0.00 0.00 99 1068.8
20260903143913 18 250 4.8 4.8 0.00 0.00 0.00 99 1068.9
20260903142911 18 255 6.4 8.0 0.00 0.00 0.00 99 1068.8
20260903141908 18 279 6.4 8.0 0.00 0.00 0.00 99 1068.8
20260903140905 18 273 3.2 3.2 0.00 0.00 0.00 99 1068.5
20260903135901 18 250 6.4 8.0 0.00 0.00 0.00 99 1068.8
20260903134901 18 285 6.4 9.7 0.00 0.00 0.00 99 1068.8
20260903133900 18 257 8.0 9.7 0.00 0.00 0.00 99 1068.9
20260903132857 18 259 0.0 1.6 0.00 0.00 0.00 99 1068.5
20260903131852 18 265 3.2 3.2 0.00 0.00 0.00 99 1068.9
20260903130851 18 262 1.6 1.6 0.00 0.00 0.00 99 1069.1
20260903125851 18 266 1.6 1.6 0.00 0.00 0.00 99 1068.9
20260903124851 18 252 6.4 8.0 0.00 0.00 0.00 99 1068.9
20260903123851 18 269 1.6 1.6 0.00 0.00 0.00 99 1069.0
20260903122851 18 266 1.6 3.2 0.00 0.00 0.00 99 1068.8
20260903121850 18 275 3.2 3.2 0.00 0.00 0.00 99 1068.7
20260903120847 18 266 1.6 1.6 0.00 0.00 0.00 99 1068.5
20260903115845 18 265 3.2 3.2 0.00 0.00 0.00 99 1068.4
20260903114839 18 262 1.6 1.6 0.00 0.00 0.00 99 1068.8
20260903113836 18 276 1.6 3.2 0.00 0.00 0.00 99 1068.5
20260903112834 18 264 3.2 3.2 0.00 0.00 0.00 99 1068.5
20260903111828 18 276 4.8 4.8 0.00 0.00 0.00 99 1068.3
20260903110825 18 256 4.8 4.8 0.00 0.00 0.00 99 1068.7
20260903105820 18 262 3.2 3.2 0.00 0.00 0.00 99 1068.5
20260903104815 18 264 3.2 4.8 0.00 0.00 0.00 99 1068.4
20260903103812 18 267 3.2 3.2 0.00 0.00 0.00 99 1068.3
20260903102809 18 273 3.2 3.2 0.00 0.00 0.00 99 1068.7
20260903101808 17 261 4.8 4.8 0.00 0.00 0.00 99 1068.7
20260903100805 17 250 1.6 3.2 0.00 0.00 0.00 99 1068.5
20260903095802 17 269 0.0 0.0 0.00 0.00 0.00 99 1068.5
20260903094758 17 265 0.0 0.0 0.00 0.00 0.00 99 1068.3
20260903093754 17 270 1.6 1.6 0.00 0.00 0.00 99 1068.3
20260903092749 17 263 0.0 0.0 0.00 0.00 0.00 99 1068.3
20260903091749 17 272 0.0 0.0 0.00 0.00 0.00 99 1068.2
20260903090745 17 272 0.0 0.0 0.00 0.00 0.00 99 1068.7
20260903085743 17 265 0.0 0.0 0.00 0.00 0.00 99 1068.3
20260903084742 17 269 0.0 0.0 0.00 0.00 0.00 99 1068.4
20260903083738 17 269 0.0 0.0 0.00 0.00 0.00 99 1068.3
20260903082737 17 272 0.0 0.0 0.00 0.00 0.00 99 1068.1
20260903081733 17 263 0.0 0.0 0.00 0.00 0.00 99 1068.3
20260903080731 17 272 0.0 0.0 0.00 0.00 0.00 99 1068.3
20260903075728 17 263 0.0 0.0 0.00 0.00 0.00 99 1068.5
20260903074727 17 272 1.6 1.6 0.00 0.00 0.00 99 1068.5
20260903073724 17 286 1.6 1.6 0.00 0.00 0.00 99 1068.7
20260903072721 17 275 1.6 1.6 0.00 0.00 0.00 99 1068.5
20260903071719 17 284 3.2 3.2 0.00 0.00 0.00 99 1068.5
20260903070714 17 288 3.2 3.2 0.00 0.00 0.00 99 1068.5
20260903065711 17 282 3.2 3.2 0.00 0.00 0.00 99 1068.7
20260903064709 17 284 1.6 3.2 0.00 0.00 0.00 99 1068.7
20260903063707 17 244 4.8 4.8 0.00 0.00 0.00 99 1068.7
20260903062703 17 271 3.2 3.2 0.00 0.00 0.00 99 1068.3
20260903061659 17 285 1.6 1.6 0.00 0.00 0.00 99 1068.2
20260903060659 17 274 0.0 0.0 0.00 0.00 0.00 99 1067.9
20260903055658 17 265 0.0 0.0 0.00 0.00 0.00 99 1068.2
20260903054657 17 272 4.8 8.0 0.00 0.00 0.00 99 1068.7